Kuchera_Ratio
0.0 0.0 0.0 0.0 0.0 0.0 0.0 0.0 0.0 0.0 0.0 0.0 0.0 0.0 0.0 0.0 0.0 0.0 0.0 0.0 0.0 0.0 0.0 0.0 0.0 0.0 0.0 0.0 0.0 0.0 0.0 0.0 0.0 0.0 0.0 0.0 0.0 0.0
0.0 0.0 0.0 0.0 0.0 0.0 0.0 0.0 0.0 0.0 0.0 0.0 0.0 0.0 0.0 0.0 0.0 0.0 0.0 0.0 0.0 0.0 0.0 0.0 0.0 0.0 0.0 0.0 0.0 0.0 0.0 0.0 0.0 0.0 0.0 0.0 0.0 0.0
0.0 0.0 0.0 0.0 0.0 0.0 0.0 0.0 0.0 0.0 0.0 0.0 0.0 0.0 0.0 0.0 0.0 0.0 0.0 0.0 0.0 0.0 0.0 0.0 0.0 0.0 0.0 0.0 0.0 0.0 0.0 0.0 0.0 0.0 0.0 0.0 0.0 0.0
0.0 0.0 0.0 0.0 0.0 0.0 0.0 0.0 0.0 0.0 0.0 0.0 0.0 0.0 0.0 0.0 0.0 0.0 0.0 0.0 0.0 0.0 0.0 0.0 0.0 0.0 0.0 0.0 0.0 0.0 0.0 0.0 0.0 0.0 0.0 0.0 0.0 0.0
0.0 0.0 0.0 0.0 0.0 0.0 0.0 0.0 0.0 0.0 0.0 0.0 0.0 0.0 0.0 0.0 0.0 0.0 0.0 0.0 0.0 0.0 0.0 0.0 0.0 0.0 0.0 0.0 0.0 0.0 0.0 0.0 0.0 0.0 0.0 0.0 0.0 0.0
0.0 0.0 0.0 0.0 0.0 0.0 0.0 0.0 0.0 0.0 0.0 0.0 0.0 0.0 0.0 0.0 0.0 0.0 0.0 0.0 0.0 0.0 0.0 0.0 0.0 0.0 0.0 0.0 0.0 0.0 0.0 0.0 0.0 0.0 0.0 0.0 0.0 0.0
0.0 0.0 0.0 0.0 0.0 0.0 0.0 0.0 0.0 0.0 0.0 0.0 0.0 0.0 0.0 0.0 0.0 0.0 0.0 0.0 0.0 0.0 0.0 0.0 0.0 0.0 0.0 0.0 0.0 0.0 0.0 0.0 0.0 0.0 0.0 0.0 0.0 0.0
0.0 0.0 0.0 0.0 0.0 0.0 0.0 0.0 0.0 0.0 0.0 0.0 0.0 0.0 0.0 0.0 0.0 0.0 0.0 0.0 0.0 0.0 0.0 0.0 0.0 0.0 0.0 0.0 0.0 0.0 0.0 0.0 0.0 0.0 0.0 0.0 1.4 0.8
0.0 0.0 0.0 0.0 0.0 0.0 0.0 0.0 0.0 0.0 0.0 0.0 0.0 0.0 0.0 0.0 0.0 0.0 0.0 0.0 0.0 0.0 0.0 0.0 0.0 0.0 0.0 0.0 0.0 0.0 0.0 0.0 0.0 1.2 1.4 2.5 3.8 3.2
0.0 0.0 0.0 0.0 0.0 0.0 0.0 0.0 0.0 0.0 0.0 0.0 0.0 0.0 0.0 0.0 0.0 0.0 0.0 0.0 0.0 0.0 0.9 0.3 1.2 1.3 1.1 1.0 0.2 0.4 0.7 1.7 1.7 2.8 4.2 5.2 5.2 4.0
0.0 0.0 0.0 0.0 0.0 0.0 0.0 0.0 0.0 0.0 0.0 0.0 0.0 0.0 0.0 0.0 0.0 0.0 0.0 0.0 0.0 0.0 0.4 2.9 3.1 3.3 5.1 4.1 1.9 3.4 4.2 3.1 4.8 5.0 5.4 6.0 6.0 4.8
0.0 0.0 0.0 0.0 0.0 0.0 0.0 0.0 0.0 0.0 0.0 0.0 0.0 0.0 0.0 0.0 0.0 0.0 0.0 0.0 0.0 0.0 0.0 2.9 4.4 4.9 6.9 6.4 5.9 5.3 6.6 6.0 6.2 6.0 6.0 6.0 5.8 1.0
0.0 0.0 0.0 0.0 0.0 0.0 0.0 0.0 0.0 0.0 0.0 0.0 0.0 0.0 0.0 0.0 0.0 0.0 0.0 0.0 0.0 0.0 0.0 0.7 2.3 5.5 7.3 7.1 6.7 7.1 8.3 8.6 8.2 7.6 6.6 6.0 4.4 1.0
0.0 0.0 0.0 0.0 0.0 0.0 0.0 0.0 0.0 0.0 0.0 0.0 0.0 0.0 0.0 0.0 0.0 0.0 0.0 0.0 0.0 0.0 0.5 3.3 5.0 4.5 5.9 8.4 7.6 8.0 9.1 9.0 8.2 8.0 6.6 5.8 5.0 3.8
0.0 0.0 0.0 0.0 0.0 0.0 0.0 0.0 0.0 0.0 0.0 0.0 0.0 0.0 0.0 0.0 0.0 0.0 0.0 0.0 0.0 0.0 3.4 4.1 6.8 8.6 8.7 9.6 7.8 7.8 8.4 11.0 7.8 7.6 6.8 6.6 5.2 3.2
2.9 1.2 0.0 0.0 0.0 0.0 0.0 0.0 0.0 0.0 0.0 0.0 0.0 0.0 0.0 0.0 0.0 0.0 0.0 0.0 1.4 3.9 4.6 7.5 8.8 9.2 11.3 12.5 11.6 11.0 11.5 12.3 9.4 8.8 8.0 6.2 2.6 0.4
5.5 3.5 1.6 0.6 0.1 0.0 0.0 0.0 0.0 0.0 0.0 0.0 0.0 0.0 0.0 0.0 0.0 0.0 0.0 1.2 4.9 5.4 7.5 9.5 9.8 9.2 9.6 11.0 12.8 12.2 11.8 11.2 9.4 9.6 8.4 8.8 5.2 2.0
7.5 6.6 4.8 3.3 2.9 1.0 0.0 0.0 0.5 0.0 0.0 0.0 0.0 0.0 0.0 0.0 0.0 0.0 2.1 4.8 6.2 8.2 9.5 10.9 11.8 12.3 12.2 11.8 8.6 11.8 11.6 11.8 10.2 9.0 7.8 9.0 6.6 0.6
9.4 9.4 7.3 6.5 7.0 5.6 5.3 3.2 4.0 1.0 0.0 1.1 2.2 0.0 0.0 0.1 1.5 3.6 4.4 5.6 8.0 10.0 10.2 12.0 11.0 11.0 13.5 15.2 13.3 9.0 11.0 10.4 9.6 9.2 6.2 6.0 5.6 1.8
10.2 11.8 12.6 11.1 10.1 9.8 7.0 5.8 5.0 5.0 4.9 2.2 4.4 3.3 3.1 4.3 4.9 4.9 5.7 7.8 9.4 11.6 12.1 10.2 8.6 8.6 11.0 13.3 13.6 12.8 5.6 7.8 8.6 9.8 8.6 4.6 2.2 9.2
12.0 12.6 12.8 13.0 12.7 11.7 9.6 7.7 8.0 8.4 7.9 6.9 7.0 6.3 6.8 6.3 6.3 7.3 9.3 10.4 12.1 12.4 12.5 10.2 9.4 5.6 5.8 8.0 13.3 13.4 12.5 11.6 8.4 7.0 7.0 7.6 6.8 5.0
12.8 13.2 13.4 13.6 13.3 13.1 12.3 10.5 10.4 12.1 12.3 10.8 10.1 9.3 10.3 8.6 9.4 12.0 12.4 13.0 12.8 13.0 13.4 11.0 7.0 6.0 7.4 10.0 13.3 14.2 13.8 12.6 11.8 12.1 12.0 12.7 9.4 9.4
13.3 13.4 13.4 13.1 13.3 13.2 13.6 14.0 13.6 13.7 14.1 13.7 13.3 13.2 13.3 12.8 12.2 12.6 13.2 13.3 13.9 13.6 12.4 12.0 9.8 10.2 12.3 12.6 13.0 13.7 14.0 12.6 10.6 11.2 11.6 12.6 12.3 12.2